User: anonymous   Login
Location: Unspecified
(0.0000°N, 0.0000°E)
Time: 02:07:24
(UTC+00:00)
Language:

STARLINK-6259 - Orbit

View from above orbital plane
View from above orbital plane
View from above satellite
View from above satellite

Ground track
Ground track

The orbit is defined by the following mean orbital elements,

1 57089U          26145.00869657 +.00000000 +00000-0 +18094-3 0 00006
2 57089  43.0028  24.9990 0001679 262.4039  97.6622 15.27585150    01
Epoch (UTC): 25 May 2026 00:12:31
Eccentricity: 0.0001679
inclination: 43.0028°
perigee height: 482 km
apogee height: 484 km
right ascension of ascending node: 24.9990°
argument of perigee: 262.4039°
revolutions per day: 15.27585150
mean anomaly at epoch: 97.6622°

The dashed part of the orbit path shows where the satellite is in the earth's shadow,  

DLR